"2010-08-21 00:00:00",89581,2.158,126.5,5.091,0.282,21.39,110.1155,25.19,26.06,21.28,0,111.4,13.06,26.03,88.5
"2010-08-21 00:00:30",89582,2.66,117.6,9.36,0.355,21.5,110.1114,25.18,26.06,21.25,0,111.4,13.06,26.02,79.6
"2010-08-21 00:01:00",89583,2.089,112.8,9.65,0.179,21.47,110.1121,25.18,26.06,21.13,0,111.4,13.06,26.02,74.8
"2010-08-21 00:01:30",89584,2.245,109,9.99,0.363,21.49,110.1109,25.18,26.06,21.12,0,111.4,13.06,26.02,71.0
"2010-08-21 00:02:00",89585,3.015,118.8,4.842,0.209,21.46,110.1111,25.18,26.04,21.13,0,111.4,13.06,26.02,80.8
"2010-08-21 00:02:30",89586,2.646,120.8,5.311,0.155,21.54,110.1139,25.19,26.07,21.06,0,111.4,13.06,26.03,82.8
"2010-08-21 00:03:00",89587,2.181,126.8,6.158,0.214,21.48,110.1213,25.21,26.07,21.05,0,111.4,13.06,26.05,88.8
"2010-08-21 00:03:30",89588,2.501,131.3,2.336,0.151,21.5,110.1217,25.21,26.07,21.02,0,111.4,13.06,26.05,93.3
"2010-08-21 00:04:00",89589,2.216,133.8,2.083,0.108,21.53,110.1182,25.2,26.06,21.07,0,111.4,13.06,26.04,95.8
"2010-08-21 00:04:30",89590,1.986,140.5,9.22,0.26,21.48,110.1182,25.2,26.06,21.07,0,111.4,13.06,26.04,102.5
"2010-08-21 00:05:00",89591,1.983,120.9,9.91,0.146,21.56,110.1164,25.19,26.06,21.34,0,111.4,13.06,26.03,82.9
"2010-08-21 00:05:30",89592,1.892,146.5,10.1,0.145,21.48,110.1176,25.2,26.07,21.28,0,111.4,13.06,26.04,108.5
"2010-08-21 00:06:00",89593,2.715,133.7,9.12,0.381,21.43,110.1171,25.2,26.06,21.19,0,111.4,13.06,26.04,95.7
"2010-08-21 00:06:30",89594,2.782,136.9,3.269,0.246,21.53,110.1183,25.2,26.05,21.15,0,111.4,13.06,26.04,98.9
"2010-08-21 00:07:00",89595,2.5,131.9,4.543,0.187,21.44,110.1177,25.2,26.05,21.13,0,111.4,13.06,26.04,93.9
"2010-08-21 00:07:30",89596,2.151,137.4,4.741,0.206,21.48,110.114,25.19,26.04,21.11,0,111.4,13.06,26.03,99.4
"2010-08-21 00:08:00",89597,2.387,128.1,6.61,0.152,21.49,110.1096,25.18,26.04,21.11,0,111.4,13.06,26.02,90.1
"2010-08-21 00:08:30",89598,2.89,122.3,2.886,0.28,21.49,110.1099,25.18,26.03,21.09,0,111.4,13.07,26.02,84.3
"2010-08-21 00:09:00",89599,2.624,115.2,4.566,0.21,21.52,110.111,25.18,26.02,21.07,0,111.4,13.06,26.02,77.2
"2010-08-21 00:09:30",89600,2.5,131.2,4.631,0.323,21.51,110.1127,25.18,26.02,21.11,0,111.4,13.06,26.02,93.2
"2010-08-21 00:10:00",89601,2.896,135.6,2.051,0.198,21.54,110.1155,25.19,26.03,21.11,0,111.4,13.06,26.03,97.6
"2010-08-21 00:10:30",89602,2.429,135.4,4.415,0.154,21.51,110.1169,25.19,26.03,21.11,0,111.4,13.06,26.03,97.4
"2010-08-21 00:11:00",89603,2.676,131.2,5.486,0.126,21.52,110.1186,25.2,26.05,21.12,0,111.4,13.07,26.04,93.2
"2010-08-21 00:11:30",89604,2.449,121.5,7.03,0.273,21.59,110.1186,25.2,26.05,21.08,0,111.4,13.07,26.04,83.5
"2010-08-21 00:12:00",89605,2.804,133.1,7.089,0.475,21.57,110.1186,25.2,26.07,21.09,0,111.4,13.07,26.04,95.1
"2010-08-21 00:12:30",89606,3.131,136.5,2.412,0.272,21.58,110.1186,25.2,26.05,21.13,0,111.4,13.07,26.04,98.5
"2010-08-21 00:13:00",89607,2.472,136.2,3.203,0.201,21.59,110.1186,25.2,26.05,21.14,0,111.4,13.07,26.04,98.2
"2010-08-21 00:13:30",89608,2.193,138.5,4.426,0.114,21.52,110.1186,25.2,26.08,21.13,0,111.4,13.07,26.04,100.5
"2010-08-21 00:14:00",89609,1.914,134.9,9.03,0.192,21.54,110.1183,25.2,26.05,21.15,0,111.4,13.07,26.04,96.9
"2010-08-21 00:14:30",89610,1.691,134,9.6,0.329,21.54,110.118,25.2,26.03,21.17,0,111.4,13.06,26.04,96.0
"2010-08-21 00:15:00",89611,2.346,133.1,3.144,0.259,21.48,110.1169,25.2,26.05,21.15,0,111.4,13.07,26.03,95.1
"2010-08-21 00:15:30",89612,1.704,144.9,14.13,0.299,21.52,110.1178,25.2,26.05,21.14,0,111.4,13.07,26.04,106.9
"2010-08-21 00:16:00",89613,1.386,128.8,9.34,0.183,21.44,110.1183,25.2,26.05,21.11,0,111.4,13.07,26.04,90.8
"2010-08-21 00:16:30",89614,1.497,110.7,4.989,0.186,21.47,110.1201,25.2,26.06,21.11,0,111.4,13.07,26.04,72.7
"2010-08-21 00:17:00",89615,1.779,121,9.91,0.321,21.43,110.1193,25.2,26.07,21.1,0,111.4,13.06,26.04,83.0
"2010-08-21 00:17:30",89616,2.344,127.8,3.604,0.227,21.46,110.117,25.2,26.05,21.13,0,111.4,13.06,26.03,89.8
"2010-08-21 00:18:00",89617,2.126,126.9,4.292,0.135,21.49,110.1104,25.18,26.04,21.13,0,111.4,13.06,26.02,88.9
"2010-08-21 00:18:30",89618,2.168,129,2.728,0.275,21.44,110.1036,25.16,26.04,21.12,0,111.4,13.06,26.00,91.0
"2010-08-21 00:19:00",89619,2.293,127.9,3.471,0.165,21.49,110.0977,25.15,26.03,21.13,0,111.4,13.06,25.99,89.9
"2010-08-21 00:19:30",89620,1.927,126.9,4.249,0.158,21.5,110.0973,25.14,26.04,21.16,0,111.4,13.06,25.98,88.9
"2010-08-21 00:20:00",89621,1.814,132.9,5.799,0.128,21.48,110.0971,25.14,26.03,21.18,0,111.4,13.06,25.98,94.9
"2010-08-21 00:20:30",89622,1.694,122.5,5.869,0.101,21.54,110.098,25.15,26.03,21.16,0,111.4,13.06,25.99,84.5
"2010-08-21 00:21:00",89623,1.79,136.8,4.638,0.132,21.49,110.0966,25.14,26.03,21.13,0,111.4,13.06,25.98,98.8
"2010-08-21 00:21:30",89624,1.588,132.5,8.24,0.192,21.42,110.0979,25.15,26.02,21.13,0,111.4,13.06,25.99,94.5
"2010-08-21 00:22:00",89625,1.274,105.9,5.056,0.11,21.47,110.0938,25.14,26.01,21.14,0,111.4,13.06,25.98,67.9
"2010-08-21 00:22:30",89626,1.553,109,10.41,0.338,21.48,110.0983,25.15,26.01,21.17,0,111.4,13.06,25.99,71.0
"2010-08-21 00:23:00",89627,1.474,141.4,8.29,0.371,21.49,110.1058,25.17,26.03,21.16,0,111.4,13.06,26.01,103.4
"2010-08-21 00:23:30",89628,1.388,135.4,3.13,0.086,21.51,110.1206,25.2,26.05,21.12,0,111.4,13.07,26.04,97.4
"2010-08-21 00:24:00",89629,1.461,138.1,4.874,0.166,21.43,110.1257,25.22,26.04,21.1,0,111.4,13.07,26.06,100.1
"2010-08-21 00:24:30",89630,1.285,132.7,6.036,0.139,21.46,110.1249,25.22,26.05,21.09,0,111.4,13.07,26.06,94.7
"2010-08-21 00:25:00",89631,1.431,134.1,1.874,0.106,21.5,110.1174,25.2,26.04,21.12,0,111.4,13.07,26.04,96.1
"2010-08-21 00:25:30",89632,1.353,135.3,2.564,0.126,21.5,110.1074,25.17,26.03,21.17,0,111.4,13.07,26.01,97.3
"2010-08-21 00:26:00",89633,1.113,144.1,6.171,0.12,21.52,110.1013,25.15,26.04,21.21,0,111.4,13.07,25.99,106.1
"2010-08-21 00:26:30",89634,1.004,154.5,13.74,0.174,21.43,110.1001,25.15,26.03,21.35,0,111.4,13.07,25.99,116.5
"2010-08-21 00:27:00",89635,1.496,159.9,6.432,0.218,21.47,110.1009,25.15,26.02,21.5,0,111.4,13.07,25.99,121.9
"2010-08-21 00:27:30",89636,1.068,178.7,18.25,0.219,21.46,110.1002,25.15,26.03,21.58,0,111.4,13.07,25.99,140.7
"2010-08-21 00:28:00",89637,1.258,201.5,8.49,0.25,21.27,110.0938,25.14,26.03,21.68,0,111.4,13.07,25.98,163.5
"2010-08-21 00:28:30",89638,1.772,181.2,7.717,0.216,21.51,110.0942,25.14,26.01,21.9,0,111.4,13.07,25.98,143.2
"2010-08-21 00:29:00",89639,2.657,157.1,7.028,0.602,21.48,110.098,25.15,26.02,22.11,0,111.4,13.07,25.99,119.1
"2010-08-21 00:29:30",89640,4.12,148,4.413,0.512,21.53,110.0986,25.15,26.03,22.1,0,111.4,13.06,25.99,110.0
"2010-08-21 00:30:00",89641,3.835,141.1,5.883,0.692,21.58,110.0982,25.15,26.03,21.91,0,111.4,13.07,25.99,103.1
"2010-08-21 00:30:30",89642,3.962,138.5,2.57,0.272,21.6,110.0971,25.14,26.02,21.63,0,111.4,13.07,25.98,100.5
"2010-08-21 00:31:00",89643,4.244,134.5,6.913,0.156,21.69,110.1023,25.16,26.02,21.67,0,111.4,13.07,26.00,96.5
"2010-08-21 00:31:30",89644,4.184,134.7,7.545,0.17,21.67,110.1019,25.16,26.03,22.06,0,111.4,13.07,26.00,96.7
"2010-08-21 00:32:00",89645,4.402,125.6,2.723,0.282,21.73,110.1004,25.15,26.03,21.97,0,111.4,13.07,25.99,87.6
"2010-08-21 00:32:30",89646,4.063,127.4,2.415,0.168,21.71,110.1011,25.15,26.03,21.89,0,111.4,13.07,25.99,89.4
"2010-08-21 00:33:00",89647,3.624,133.7,3.361,0.347,21.7,110.095,25.14,26.02,21.88,0,111.4,13.07,25.98,95.7
"2010-08-21 00:33:30",89648,4.005,130.6,4.139,0.2,21.73,110.0939,25.14,26,21.91,0,111.4,13.07,25.98,92.6
"2010-08-21 00:34:00",89649,3.874,131.9,4.403,0.198,21.78,110.0942,25.14,26.01,22.15,0,111.4,13.06,25.98,93.9
"2010-08-21 00:34:30",89650,3.999,129.1,3.382,0.268,21.8,110.0942,25.14,25.99,22.07,0,111.4,13.06,25.98,91.1
"2010-08-21 00:35:00",89651,3.644,127.3,2.28,0.128,21.82,110.0903,25.13,26,22.18,0,111.4,13.06,25.97,89.3
"2010-08-21 00:35:30",89652,3.382,125.3,3.491,0.151,21.79,110.0808,25.1,26,22.12,0,111.4,13.06,25.94,87.3
"2010-08-21 00:36:00",89653,3.014,131.6,3.34,0.133,21.84,110.0715,25.08,25.99,22.14,0,111.4,13.06,25.92,93.6
"2010-08-21 00:36:30",89654,2.64,138.9,6.656,0.101,21.81,110.069,25.07,25.98,22.13,0,111.4,13.06,25.91,100.9
"2010-08-21 00:37:00",89655,3.24,137.4,2.627,0.23,21.71,110.069,25.07,25.98,22.03,0,111.4,13.06,25.91,99.4
"2010-08-21 00:37:30",89656,3.208,142.9,4.008,0.189,21.74,110.0687,25.07,25.98,22.02,0,111.4,13.06,25.91,104.9
"2010-08-21 00:38:00",89657,3.892,134.4,5.38,0.484,21.75,110.0676,25.07,25.97,22,0,111.4,13.06,25.91,96.4
"2010-08-21 00:38:30",89658,4.102,132.3,3.342,0.265,21.75,110.0606,25.05,25.96,22.03,0,111.4,13.06,25.89,94.3
"2010-08-21 00:39:00",89659,4.154,132.9,2.074,0.212,21.82,110.0606,25.05,25.96,22.1,0,111.4,13.06,25.89,94.9
"2010-08-21 00:39:30",89660,4.004,132.1,1.755,0.139,21.83,110.0612,25.05,25.93,22.11,0,111.4,13.06,25.89,94.1
"2010-08-21 00:40:00",89661,3.794,123,6.178,0.257,21.79,110.0615,25.05,25.93,22.06,0,111.4,13.07,25.89,85.0
"2010-08-21 00:40:30",89662,4.182,121.3,6.524,0.469,21.82,110.0618,25.05,25.95,22.05,0,111.4,13.07,25.89,83.3
"2010-08-21 00:41:00",89663,3.934,126.7,2.021,0.489,21.8,110.0625,25.06,25.95,22.08,0,111.4,13.07,25.89,88.7
"2010-08-21 00:41:30",89664,4.518,124.4,3.069,0.177,21.89,110.0622,25.05,25.94,22.18,0,111.4,13.07,25.89,86.4
"2010-08-21 00:42:00",89665,4.991,129.9,2.813,0.394,21.87,110.0623,25.05,25.93,22.06,0,111.4,13.07,25.89,91.9
"2010-08-21 00:42:30",89666,4.598,124,3.099,0.156,21.88,110.0576,25.04,25.93,22.2,0,111.4,13.07,25.88,86.0
"2010-08-21 00:43:00",89667,4.713,130.1,2.217,0.2,21.84,110.0425,25,25.93,21.84,0,111.4,13.07,25.84,92.1
"2010-08-21 00:43:30",89668,4.602,133.7,4.175,0.343,21.89,110.0378,24.99,25.93,21.86,0,111.4,13.07,25.83,95.7
"2010-08-21 00:44:00",89669,4.541,134.1,2.506,0.162,21.88,110.0384,24.99,25.93,21.91,0,111.4,13.07,25.83,96.1
"2010-08-21 00:44:30",89670,3.861,136.9,3.464,0.303,21.87,110.0394,25,25.92,21.93,0,111.3,13.07,25.83,98.9
"2010-08-21 00:45:00",89671,3.434,136.6,4.14,0.399,21.85,110.0376,24.99,25.92,21.91,0,111.3,13.07,25.83,98.6
"2010-08-21 00:45:30",89672,3.329,139.1,1.446,0.185,21.86,110.0433,25.01,25.91,21.96,0,111.3,13.07,25.84,101.1
"2010-08-21 00:46:00",89673,3.609,137.1,2.573,0.252,21.81,110.0479,25.02,25.91,21.92,0,111.3,13.07,25.86,99.1
"2010-08-21 00:46:30",89674,3.515,140.5,1.5,0.107,21.85,110.0507,25.02,25.89,21.92,0,111.3,13.07,25.86,102.5
"2010-08-21 00:47:00",89675,3.414,138.3,2.033,0.089,21.82,110.0535,25.03,25.89,21.89,0,111.3,13.07,25.87,100.3
"2010-08-21 00:47:30",89676,3.495,131.8,2.272,0.138,21.78,110.0544,25.03,25.89,21.88,0,111.3,13.07,25.87,93.8
"2010-08-21 00:48:00",89677,3.246,132.2,2.261,0.1,21.85,110.0527,25.03,25.88,21.84,0,111.3,13.07,25.87,94.2
"2010-08-21 00:48:30",89678,3.041,138,2.333,0.122,21.79,110.0505,25.02,25.88,21.85,0,111.3,13.07,25.86,100.0
"2010-08-21 00:49:00",89679,2.688,139.2,2.79,0.11,21.85,110.0468,25.01,25.89,21.89,0,111.3,13.07,25.85,101.2
"2010-08-21 00:49:30",89680,2.624,136.9,1.388,0.125,21.86,110.0446,25.01,25.87,21.91,0,111.3,13.07,25.85,98.9
"2010-08-21 00:50:00",89681,2.921,142,2.869,0.178,21.82,110.0458,25.01,25.88,21.95,0,111.3,13.07,25.85,104.0
"2010-08-21 00:50:30",89682,3.014,138.3,2.28,0.111,21.81,110.0452,25.01,25.87,21.96,0,111.3,13.07,25.85,100.3
"2010-08-21 00:51:00",89683,3.294,135.1,2.099,0.17,21.91,110.0481,25.02,25.88,21.89,0,111.3,13.07,25.86,97.1
"2010-08-21 00:51:30",89684,3.081,137.1,1.582,0.164,22.01,110.0549,25.04,25.87,21.91,0,111.3,13.07,25.87,99.1
"2010-08-21 00:52:00",89685,3.58,147.5,3.535,0.184,22.19,110.055,25.04,25.89,21.86,0,111.3,13.07,25.88,109.5
"2010-08-21 00:52:30",89686,3.195,149.6,1.685,0.15,22.28,110.0517,25.03,25.89,21.84,0,111.3,13.07,25.87,111.6
"2010-08-21 00:53:00",89687,2.672,144.8,2.951,0.22,22.3,110.048,25.02,25.88,21.84,0,111.3,13.07,25.86,106.8
"2010-08-21 00:53:30",89688,2.41,156.9,4.151,0.234,22.37,110.0457,25.01,25.87,21.83,0,111.3,13.07,25.85,118.9
"2010-08-21 00:54:00",89689,2.639,155,3.881,0.183,22.41,110.0421,25,25.89,21.83,0,111.3,13.07,25.84,117.0
"2010-08-21 00:54:30",89690,2.599,157.7,1.97,0.096,22.4,110.0387,24.99,25.86,21.9,0,111.3,13.07,25.83,119.7
"2010-08-21 00:55:00",89691,2.618,144.1,6.858,0.26,22.4,110.0387,24.99,25.87,21.84,0,111.3,13.07,25.83,106.1
"2010-08-21 00:55:30",89692,3.074,136.6,2.134,0.111,22.32,110.0362,24.99,25.87,21.79,0,111.3,13.07,25.83,98.6
"2010-08-21 00:56:00",89693,2.844,141.6,4.847,0.222,22.29,110.0317,24.98,25.86,21.83,0,111.3,13.07,25.82,103.6
"2010-08-21 00:56:30",89694,2.6,148.2,4.7,0.191,22.28,110.0311,24.97,25.86,21.81,0,111.3,13.08,25.81,110.2
"2010-08-21 00:57:00",89695,3.087,141.5,2.061,0.085,22.29,110.0303,24.97,25.85,21.82,0,111.3,13.08,25.81,103.5
"2010-08-21 00:57:30",89696,3.164,142.1,2.367,0.101,22.34,110.0303,24.97,25.86,21.81,0,111.3,13.08,25.81,104.1
"2010-08-21 00:58:00",89697,3.444,147.3,3.393,0.148,22.37,110.0303,24.97,25.85,21.87,0,111.3,13.08,25.81,109.3
"2010-08-21 00:58:30",89698,3.786,149.6,1.325,0.13,22.37,110.0303,24.97,25.84,21.89,0,111.3,13.08,25.81,111.6
"2010-08-21 00:59:00",89699,3.729,149.1,1.951,0.463,22.33,110.0312,24.97,25.84,21.86,0,111.3,13.08,25.81,111.1
"2010-08-21 00:59:30",89700,3.876,144.5,1.53,0.305,22.27,110.0335,24.98,25.85,21.89,0,111.3,13.08,25.82,106.5
"2010-08-21 01:00:00",89701,4.088,141.7,2.648,0.269,22.27,110.039,24.99,25.85,21.86,0,111.3,13.08,25.83,103.7
"2010-08-21 01:00:30",89702,4.018,144.4,3.864,0.124,22.17,110.042,25,25.87,21.98,0,111.3,13.08,25.84,106.4
"2010-08-21 01:01:00",89703,4.01,151.3,1.326,0.073,22.12,110.048,25.02,25.86,22.04,0,111.3,13.08,25.86,113.3
"2010-08-21 01:01:30",89704,3.902,154.7,1.609,0.101,22.07,110.0534,25.03,25.85,22.2,0,111.3,13.08,25.87,116.7
"2010-08-21 01:02:00",89705,3.836,150.3,2.435,0.083,22.1,110.0459,25.01,25.86,21.96,0,111.2,13.09,25.85,112.3
"2010-08-21 01:02:30",89706,3.868,143.3,3.337,0.155,22.03,110.0418,25,25.85,21.94,0,111.2,13.09,25.84,105.3
"2010-08-21 01:03:00",89707,3.681,144.4,1.326,0.082,21.96,110.0384,24.99,25.86,21.86,0,111.2,13.09,25.83,106.4
"2010-08-21 01:03:30",89708,3.357,141.7,2.394,0.101,22.03,110.0339,24.98,25.84,21.96,0,111.2,13.09,25.82,103.7
"2010-08-21 01:04:00",89709,3.272,156.2,2.094,0.109,21.98,110.0328,24.98,25.85,22.18,0,111.2,13.09,25.82,118.2
"2010-08-21 01:04:30",89710,3.148,157.3,2.651,0.096,21.96,110.032,24.98,25.85,22.23,0,111.2,13.09,25.82,119.3
"2010-08-21 01:05:00",89711,2.701,147,5.025,0.164,21.98,110.0307,24.97,25.85,22.09,0,111.2,13.09,25.81,109.0
"2010-08-21 01:05:30",89712,3.065,147.2,2.053,0.131,21.97,110.029,24.97,25.84,21.96,0,111.2,13.09,25.81,109.2
"2010-08-21 01:06:00",89713,3.345,145.4,1.531,0.1,21.98,110.0297,24.97,25.84,21.94,0,111.2,13.09,25.81,107.4
"2010-08-21 01:06:30",89714,3.504,147.5,2.006,0.133,21.99,110.0315,24.98,25.84,21.96,0,111.2,13.09,25.81,109.5
"2010-08-21 01:07:00",89715,3.474,153.4,1.949,0.111,21.96,110.0331,24.98,25.84,21.91,0,111.2,13.09,25.82,115.4
"2010-08-21 01:07:30",89716,3.379,156.3,1.424,0.133,21.97,110.0337,24.98,25.84,21.84,0,111.2,13.09,25.82,118.3
"2010-08-21 01:08:00",89717,3.187,155.7,0.752,0.294,22.07,110.0337,24.98,25.84,21.87,0,111.2,13.09,25.82,117.7
"2010-08-21 01:08:30",89718,3.347,150.8,2.244,0.076,21.93,110.0337,24.98,25.85,21.89,0,111.2,13.09,25.82,112.8
"2010-08-21 01:09:00",89719,3.468,150.2,0.833,0.098,21.93,110.0334,24.98,25.85,21.85,0,111.2,13.08,25.82,112.2
"2010-08-21 01:09:30",89720,3.508,150,2.438,0.12,22,110.0337,24.98,25.84,21.83,0,111.2,13.08,25.82,112.0
"2010-08-21 01:10:00",89721,3.361,152,1.443,0.087,22,110.0337,24.98,25.84,21.89,0,111.2,13.08,25.82,114.0
"2010-08-21 01:10:30",89722,3.312,151.3,2.926,0.146,22.01,110.0337,24.98,25.84,21.89,0,111.2,13.08,25.82,113.3
"2010-08-21 01:11:00",89723,3.46,146.3,1.876,0.085,22.02,110.0337,24.98,25.85,21.93,0,111.2,13.08,25.82,108.3
"2010-08-21 01:11:30",89724,3.634,146,1.171,0.071,22.06,110.0337,24.98,25.84,21.95,0,111.2,13.08,25.82,108.0
"2010-08-21 01:12:00",89725,3.589,145.6,1.711,0.12,22.03,110.0337,24.98,25.84,21.87,0,111.2,13.08,25.82,107.6
"2010-08-21 01:12:30",89726,3.453,144.8,1.366,0.165,22.06,110.0334,24.98,25.86,21.87,0,111.2,13.08,25.82,106.8
"2010-08-21 01:13:00",89727,3.509,145.4,2.133,0.066,22.08,110.0331,24.98,25.84,21.83,0,111.2,13.08,25.82,107.4
"2010-08-21 01:13:30",89728,3.508,145.4,1.363,0.105,22.11,110.0337,24.98,25.85,21.77,0,111.2,13.09,25.82,107.4
"2010-08-21 01:14:00",89729,3.214,148.6,3.246,0.129,22.17,110.0325,24.98,25.86,21.72,0,111.2,13.09,25.82,110.6
"2010-08-21 01:14:30",89730,3.083,151.4,2.069,0.148,22.17,110.0337,24.98,25.86,21.69,0,111.2,13.09,25.82,113.4
"2010-08-21 01:15:00",89731,3.253,149.1,1.093,0.069,22.11,110.0337,24.98,25.86,21.67,0,111.2,13.09,25.82,111.1
"2010-08-21 01:15:30",89732,3.215,148.4,1.589,0.13,22.14,110.034,24.98,25.87,21.68,0,111.2,13.09,25.82,110.4
"2010-08-21 01:16:00",89733,3.283,151.2,2.842,0.204,22.16,110.034,24.98,25.85,21.72,0,111.2,13.09,25.82,113.2
"2010-08-21 01:16:30",89734,3.165,151.2,1.854,0.069,22.18,110.035,24.98,25.85,21.73,0,111.2,13.09,25.82,113.2
"2010-08-21 01:17:00",89735,3.33,149.6,2.032,0.12,22.11,110.0357,24.99,25.86,21.74,0,111.2,13.09,25.83,111.6
"2010-08-21 01:17:30",89736,3.281,149.1,1.272,0.08,22.14,110.0385,24.99,25.85,21.7,0,111.2,13.09,25.83,111.1
"2010-08-21 01:18:00",89737,3.119,153,1.832,0.095,22.19,110.0462,25.01,25.86,21.67,0,111.2,13.09,25.85,115.0
"2010-08-21 01:18:30",89738,3.046,155.5,1.268,0.062,22.23,110.048,25.02,25.86,21.67,0,111.2,13.09,25.86,117.5
"2010-08-21 01:19:00",89739,2.894,153.6,1.547,0.054,22.23,110.0505,25.02,25.85,21.65,0,111.2,13.09,25.86,115.6
"2010-08-21 01:19:30",89740,3.022,154,1.537,0.055,22.24,110.0521,25.03,25.86,21.63,0,111.2,13.09,25.87,116.0
"2010-08-21 01:20:00",89741,2.924,152.1,0.953,0.041,22.26,110.0558,25.04,25.86,21.61,0,111.2,13.09,25.88,114.1
"2010-08-21 01:20:30",89742,2.845,149.4,1.192,0.06,22.16,110.0549,25.04,25.86,21.58,0,111.2,13.09,25.87,111.4
"2010-08-21 01:21:00",89743,2.797,147.6,0.843,0.048,22.14,110.0537,25.03,25.86,21.58,0,111.2,13.09,25.87,109.6
"2010-08-21 01:21:30",89744,2.849,149.5,0.96,0.047,22.17,110.0524,25.03,25.87,21.55,0,111.2,13.09,25.87,111.5
"2010-08-21 01:22:00",89745,2.845,150.5,0.824,0.057,22.19,110.0499,25.02,25.86,21.5,0,111.2,13.09,25.86,112.5
"2010-08-21 01:22:30",89746,2.898,151.3,0.59,0.048,22.24,110.0483,25.02,25.87,21.47,0,111.2,13.09,25.86,113.3
"2010-08-21 01:23:00",89747,2.839,151.4,0.822,0.043,22.22,110.0449,25.01,25.86,21.47,0,111.2,13.1,25.85,113.4
"2010-08-21 01:23:30",89748,2.926,151.3,0.876,0.041,22.27,110.0421,25,25.85,21.5,0,111.2,13.1,25.84,113.3
"2010-08-21 01:24:00",89749,2.98,151.5,0.783,0.052,22.33,110.0382,24.99,25.86,21.55,0,111.2,13.1,25.83,113.5
"2010-08-21 01:24:30",89750,3.068,154.2,1.363,0.066,22.28,110.0369,24.99,25.83,21.51,0,111.2,13.09,25.83,116.2
"2010-08-21 01:25:00",89751,3.286,155,1.089,0.071,22.24,110.0324,24.98,25.85,21.59,0,111.2,13.1,25.82,117.0
"2010-08-21 01:25:30",89752,3.184,158.7,1.678,0.08,22.25,110.0312,24.97,25.83,21.65,0,111.2,13.09,25.81,120.7
"2010-08-21 01:26:00",89753,3.145,159.2,0.8,0.049,22.25,110.0327,24.98,25.83,21.64,0,111.2,13.09,25.82,121.2
"2010-08-21 01:26:30",89754,3.205,159,2.1,0.067,22.28,110.0343,24.98,25.84,21.65,0,111.2,13.09,25.82,121.0
"2010-08-21 01:27:00",89755,3.135,159.3,1.384,0.042,22.29,110.0364,24.99,25.83,21.65,0,111.2,13.09,25.83,121.3
"2010-08-21 01:27:30",89756,3.072,157.4,1.459,0.077,22.36,110.0364,24.99,25.83,21.63,0,111.2,13.09,25.83,119.4
"2010-08-21 01:28:00",89757,2.944,155.8,2.365,0.105,22.38,110.037,24.99,25.83,21.63,0,111.2,13.09,25.83,117.8
"2010-08-21 01:28:30",89758,2.889,156.1,2.917,0.071,22.39,110.037,24.99,25.83,21.63,0,111.2,13.09,25.83,118.1
"2010-08-21 01:29:00",89759,3.175,158.7,1.631,0.141,22.36,110.037,24.99,25.85,21.65,0,111.2,13.09,25.83,120.7
"2010-08-21 01:29:30",89760,3.142,155.4,0.648,0.028,22.38,110.037,24.99,25.84,21.72,0,111.2,13.09,25.83,117.4
"2010-08-21 01:30:00",89761,3.164,155,0.588,0.039,22.39,110.037,24.99,25.83,21.7,0,111.2,13.09,25.83,117.0
"2010-08-21 01:30:30",89762,3.182,154,0.85,0.055,22.41,110.0359,24.99,25.82,21.67,0,111.2,13.09,25.83,116.0
"2010-08-21 01:31:00",89763,3.028,152.9,0.788,0.067,22.43,110.0345,24.98,25.82,21.63,0,111.2,13.09,25.82,114.9
"2010-08-21 01:31:30",89764,2.853,152.3,1.487,0.115,22.41,110.0345,24.98,25.83,21.61,0,111.2,13.1,25.82,114.3
"2010-08-21 01:32:00",89765,2.7,152.1,1.656,0.055,22.41,110.0334,24.98,25.82,21.63,0,111.2,13.1,25.82,114.1
"2010-08-21 01:32:30",89766,2.716,157.3,1.215,0.085,22.42,110.0317,24.98,25.82,21.62,0,111.2,13.1,25.82,119.3
"2010-08-21 01:33:00",89767,2.841,159.8,0.681,0.059,22.49,110.0275,24.97,25.82,21.59,0,111.2,13.1,25.80,121.8
"2010-08-21 01:33:30",89768,2.879,159.6,1.095,0.069,22.48,110.0194,24.94,25.82,21.6,0,111.2,13.1,25.78,121.6
"2010-08-21 01:34:00",89769,2.921,158.4,1.442,0.059,22.49,110.0157,24.93,25.81,21.6,0,111.2,13.11,25.77,120.4
"2010-08-21 01:34:30",89770,2.833,160.5,1.443,0.054,22.48,110.0121,24.93,25.81,21.64,0,111.2,13.1,25.76,122.5
"2010-08-21 01:35:00",89771,2.897,160.4,1.157,0.061,22.49,110.0118,24.92,25.81,21.66,0,111.2,13.11,25.76,122.4
"2010-08-21 01:35:30",89772,2.894,160,1.362,0.085,22.49,110.0112,24.92,25.82,21.74,0,111.2,13.11,25.76,122.0
"2010-08-21 01:36:00",89773,2.921,159.8,2.921,0.094,22.51,110.0069,24.91,25.8,21.72,0,111.2,13.11,25.75,121.8
"2010-08-21 01:36:30",89774,2.984,163.7,1.436,0.099,22.55,110.0037,24.9,25.8,21.81,0,111.2,13.11,25.74,125.7
"2010-08-21 01:37:00",89775,2.807,159.3,3.173,0.081,22.5,110.008,24.92,25.8,21.76,0,111.2,13.11,25.75,121.3
"2010-08-21 01:37:30",89776,2.91,158.8,1.491,0.082,22.51,110.0068,24.91,25.79,21.74,0,111.2,13.11,25.75,120.8
"2010-08-21 01:38:00",89777,2.944,159.1,0.929,0.049,22.53,110.0089,24.92,25.81,21.77,0,111.2,13.11,25.76,121.1
"2010-08-21 01:38:30",89778,2.935,158.1,1.476,0.04,22.57,110.0111,24.92,25.79,21.78,0,111.2,13.11,25.76,120.1
"2010-08-21 01:39:00",89779,3.037,155.6,1.256,0.139,22.57,110.0135,24.93,25.79,21.8,0,111.2,13.11,25.77,117.6
"2010-08-21 01:39:30",89780,3.177,156.2,0.714,0.058,22.63,110.0165,24.94,25.78,21.82,0,111.2,13.11,25.78,118.2
"2010-08-21 01:40:00",89781,3.095,157.8,0.891,0.039,22.64,110.0164,24.94,25.78,21.83,0,111.2,13.11,25.78,119.8
"2010-08-21 01:40:30",89782,3.05,156.3,0.634,0.065,22.63,110.0193,24.94,25.78,21.85,0,111.2,13.11,25.78,118.3
"2010-08-21 01:41:00",89783,3.014,155.6,0.754,0.042,22.6,110.0201,24.95,25.77,21.83,0,111.2,13.11,25.79,117.6
"2010-08-21 01:41:30",89784,2.954,152.5,1.12,0.033,22.64,110.0184,24.94,25.77,21.83,0,111.2,13.11,25.78,114.5
"2010-08-21 01:42:00",89785,2.833,153.1,1.261,0.056,22.6,110.0177,24.94,25.78,21.83,0,111.2,13.11,25.78,115.1
"2010-08-21 01:42:30",89786,2.906,153.7,0.873,0.037,22.64,110.0154,24.93,25.79,21.82,0,111.1,13.11,25.77,115.7
"2010-08-21 01:43:00",89787,2.918,152.4,0.755,0.036,22.62,110.014,24.93,25.78,21.85,0,111.1,13.11,25.77,114.4
"2010-08-21 01:43:30",89788,2.93,151,0.584,0.047,22.62,110.0101,24.92,25.78,21.88,0,111.1,13.11,25.76,113.0
"2010-08-21 01:44:00",89789,2.962,150.6,0.393,0.031,22.64,110.0082,24.92,25.78,21.86,0,111.1,13.11,25.75,112.6
"2010-08-21 01:44:30",89790,2.891,149.1,0.758,0.035,22.6,110.0108,24.92,25.78,21.87,0,111.1,13.1,25.76,111.1
"2010-08-21 01:45:00",89791,2.935,150.1,1.751,0.075,22.65,110.0087,24.92,25.78,21.85,0,111.1,13.1,25.76,112.1
"2010-08-21 01:45:30",89792,3.011,152.1,0.707,0.032,22.65,110.0064,24.91,25.78,21.85,0,111.1,13.11,25.75,114.1
"2010-08-21 01:46:00",89793,2.912,151.8,0.897,0.038,22.62,110.0067,24.91,25.78,21.89,0,111.1,13.11,25.75,113.8
"2010-08-21 01:46:30",89794,2.97,147.7,1.703,0.033,22.55,110.0067,24.91,25.77,21.75,0,111.1,13.11,25.75,109.7
"2010-08-21 01:47:00",89795,3.039,148.3,1.136,0.06,22.6,110.0067,24.91,25.76,21.78,0,111.1,13.11,25.75,110.3
"2010-08-21 01:47:30",89796,3.17,150.9,2.23,0.06,22.59,110.0022,24.9,25.75,22.01,0,111.1,13.11,25.74,112.9
"2010-08-21 01:48:00",89797,3.139,153.3,1.987,0.091,22.59,109.9854,24.86,25.75,22.06,0,111.1,13.11,25.70,115.3
"2010-08-21 01:48:30",89798,3.442,154.2,1.513,0.212,22.6,109.9787,24.84,25.74,22.05,0,111.1,13.11,25.68,116.2
"2010-08-21 01:49:00",89799,3.534,152.5,2.027,0.05,22.56,109.9736,24.83,25.74,22.02,0,111.1,13.11,25.67,114.5